Regional Weather Roundup
Issued by NWS

Home | Current Version | Previous Version | Graphics & Text | Print | Product List | Glossary On
Versions: 1 2 3 4 5 6 7 8 9 10 11 12 13 14 15 16 17 18 19 20 21 22 23 24 25 26 27 28 29 30 31 32 33 34 35 36 37 38 39 40 41 42 43 44 45 46 47 48 49 50
000
ASUS45 KTFX 201810
RWRMT
MONTANA REGIONAL WEATHER ROUNDUP
NATIONAL WEATHER SERVICE GREAT FALLS MT
1200 PM MDT FRI OCT 20 2017

NOTE: "FAIR" INDICATES FEW OR NO CLOUDS BELOW 12000 FEET WITH NO
SIGNIFICANT WEATHER AND/OR OBSTRUCTIONS TO VISIBILITY.

MTZ001>007-043-201900-
WEST OF THE DIVIDE

CITY           SKY/WX    TMP DP  RH WIND       PRES   REMARKS
KALISPELL      LGT RAIN  44  39  82 SE6       29.49R
MISSOULA       CLOUDY    45  34  65 NW10      29.56R
BUTTE          CLOUDY    49  28  44 VRB5      29.37R
MULLAN PASS    SNOW      28  27  96 VRB5      29.54R VSB 1/4
ANACONDA         N/A     45  32  61 NE7       29.42R
DEER LODGE       N/A     45  32  61 NW29G39   29.41S
EUREKA           N/A     46  39  76 MISG      29.48R
HAMILTON         N/A     43  34  70 E9        29.56R
LIBBY            N/A     46  36  66 S6        29.50R
$$

MTZ008-052>055-201900-
SOUTHWEST MONTANA

CITY           SKY/WX    TMP DP  RH WIND       PRES   REMARKS
BOZEMAN        PTSUNNY   64  29  26 S23       29.34F
DILLON         CLOUDY    58  24  27 S24G35    29.33F
W YELLOWSTONE  LGT RAIN  39  36  87 SW16G26   29.58R WCI  30
ENNIS          CLOUDY    55  30  38 S31G54    29.43F
THREE FORKS      N/A     64  29  27 S24       29.39F
$$

MTZ009-010-012-014-046-048-049-054-201900-
EAST SLOPES AND CENTRAL MONTANA

CITY           SKY/WX    TMP DP  RH WIND       PRES   REMARKS
CUT BANK       CLOUDY    50  33  52 W26G35    29.29F
GREAT FALLS    CLOUDY    61  21  21 W15       29.27R
MALMSTROM AFB  CLOUDY    64  23  21 W14       29.27R
HELENA         CLOUDY    55  31  39 W16G29    29.33R
BOWMANS CRNR     N/A     55  29  37 SW15      29.30R
CHOTEAU          N/A     55  27  33 N6        29.31S
FAIRFIELD        N/A     57  24  27 NW13      29.29R
POWER          PTSUNNY   54  27  35 N14       29.29R
RAYNESFORD     PTSUNNY   69  25  19 SW21G26   29.27F
ULM            PTSUNNY   62  24  23 W16G22    29.28R
$$

MTZ011-013-016-021-045-047-050-051-201900-
NORTH CENTRAL MONTANA

CITY           SKY/WX    TMP DP  RH WIND       PRES   REMARKS
HAVRE          CLOUDY    48  36  63 NW3       29.21F
LEWISTOWN      CLOUDY    66  28  24 S14       29.29F
N BAR RANCH      N/A     63  27  25 S7        29.35F
CHINOOK          N/A     54  36  50 E6        29.20F
DENTON         PTSUNNY   60  26  27 S12       29.23F
GEYSER         PTSUNNY   57  28  32 SW3       29.27F
GRASS RANGE      N/A     68  28  23 SW7       29.25F
JUDITH GAP       N/A     57  31  37 S7        29.32F
WINIFRED         N/A     62  31  31 E6        29.26F
$$

MTZ017>020-022>027-061-062-201900-
NORTHEAST MONTANA

CITY           SKY/WX    TMP DP  RH WIND       PRES   REMARKS
GLASGOW        SUNNY     64  32  30 SE14      29.24F
JORDAN           N/A     73  22  14 S15       29.25F
SIDNEY         SUNNY     64  34  32 S12       29.29F
WOLF POINT     SUNNY     67  29  24 CALM      29.25F
MALTA          SUNNY     66  27  22 SW7       29.22F
PLENTYWOOD       N/A     63  32  31 CALM      29.27F
POPLAR           N/A     66  30  26 NW3       29.27F
$$

MTZ028>42-056>058-201900-
SOUTHCENTRAL AND SOUTHEAST MONTANA

CITY           SKY/WX    TMP DP  RH WIND       PRES   REMARKS
BAKER          SUNNY     74  31  20 SE9       29.35F
BILLINGS       CLOUDY    62  29  28 SW8       29.32F
LIVINGSTON     PTSUNNY   65  31  28 SW35G48   29.36S
MILES CITY     SUNNY     66  33  29 S8        29.30F
BIG TIMBER     PTSUNNY   63  28  27 W12G18    29.37S
FORSYTH          N/A     72  28  20 E3        29.28F
HARLOWTON      PTSUNNY   64  29  26 MISG      29.31F
LAUREL           N/A     66  28  24 SW13      29.33S
$$

REGIONAL REPORTS...DAKOTAS

CITY           SKY/WX    TMP DP  RH WIND       PRES   REMARKS
WILLISTON      SUNNY     63  36  36 S7        29.29F
MINOT          SUNNY     69  38  32 S13       29.30F
DICKINSON      SUNNY     74  33  22 S8        29.32F
BEACH            N/A     75  30  19 S10       29.36F
CROSBY           N/A     66  36  32 S10       29.27F
TIOGA            N/A     64  30  27 SW13      29.31F
WATFORD CITY     N/A     72  34  25 SW7       29.29F
BISMARCK       SUNNY     70  48  45 SE18      29.39F
GRAND FORKS    MOSUNNY   74  51  44 S23G33    29.47F
FARGO          SUNNY     72  51  47 S15G35    29.52F
BUFFALO SD       N/A     78  34  20 SW13      29.31F
RAPID CITY     SUNNY     78  35  21 S20G28    29.45F
$$

REGIONAL REPORTS...WYOMING/IDAHO/WASHINGTON

CITY           SKY/WX    TMP DP  RH WIND       PRES   REMARKS
GILLETTE         N/A     73  33  23 SW28G37   29.42F
SHERIDAN       CLOUDY    76  30  18 S5        29.36F
BUFFALO WY     SUNNY     74  24  15 SW21G28   29.44F
CODY           CLOUDY    67  30  25 SW8       29.42F
YELLOWSTONE LA   N/A     38  36  92 W9G20     29.62R WCI  31
IDAHO FALLS    CLOUDY    44  34  67 SW28G39   29.67R
SALMON         LGT RAIN  42  33  70 NE8       29.59R
BOISE          LGT RAIN  45  38  76 NW17G35   29.81R
SPOKANE        CLOUDY    44  40  85 SW21      29.59R
$$

REGIONAL REPORTS...ALBERTA

CITY           SKY/WX    TMP DP  RH WIND       PRES   REMARKS
EDMONTON       SUNNY     45  36  70 NW8       29.30R
CALGARY        PTSUNNY   46  30  53 N21G26    29.30R
LETHBRIDGE     PTSUNNY   55  32  41 W26G38    29.25F
MEDICINE HAT   CLOUDY    50  37  62 W12G17    29.23R
$$

REGIONAL REPORTS...SASKATCHEWAN

CITY           SKY/WX    TMP DP  RH WIND       PRES   REMARKS
SWIFT CURRENT  SUNNY     70  27  19 SW12      29.21F
REGINA         PTSUNNY   63  34  34 SE14      29.22F
SASKATOON      PTSUNNY   50  34  53 N6        29.25F
$$



USA.gov is the U.S. government's official web portal to all federal, state and local government web resources and services.